Temp
-5 -6 -6 -7 -7 -8 -8 -8 -8 -8 -8 -8 -8 -8 -8 -8 -8 -8 -8 -8 -8 -8 -8 -8 -7 -7 -8 -8 -8 -8 -8 -8 -8 -8 -9 -9 -9 -10 -10 -11 -11 -11 -11 -11 -12
-5 -6 -6 -7 -7 -7 -8 -7 -8 -8 -8 -8 -8 -8 -8 -8 -8 -8 -8 -8 -8 -7 -8 -8 -8 -8 -8 -8 -8 -8 -8 -8 -8 -8 -9 -9 -10 -10 -11 -11 -11 -11 -12 -11 -11
-5 -6 -6 -7 -7 -7 -8 -7 -7 -7 -7 -8 -7 -7 -7 -8 -8 -8 -8 -8 -8 -8 -8 -8 -8 -8 -8 -8 -8 -8 -8 -8 -8 -9 -9 -10 -10 -11 -11 -11 -12 -12 -11 -11 -11
-5 -6 -6 -6 -7 -7 -7 -7 -7 -7 -7 -7 -7 -7 -8 -8 -8 -8 -8 -8 -8 -8 -8 -8 -7 -7 -7 -7 -7 -8 -8 -8 -9 -9 -10 -10 -10 -11 -11 -11 -11 -11 -11 -11 -11
-5 -6 -6 -6 -7 -7 -7 -7 -7 -7 -7 -7 -7 -8 -8 -8 -8 -8 -8 -8 -7 -7 -7 -7 -7 -7 -7 -8 -8 -8 -8 -8 -9 -9 -10 -10 -10 -11 -11 -11 -11 -11 -11 -11 -12
-5 -6 -6 -6 -6 -7 -7 -7 -7 -7 -7 -7 -7 -7 -8 -8 -8 -8 -8 -7 -7 -7 -7 -7 -7 -7 -8 -8 -8 -8 -8 -9 -9 -9 -10 -10 -11 -11 -11 -11 -11 -11 -12 -12 -12
-5 -5 -6 -6 -6 -7 -7 -7 -7 -7 -7 -7 -8 -8 -8 -8 -8 -7 -7 -7 -7 -7 -7 -7 -7 -8 -8 -8 -8 -8 -8 -9 -9 -10 -10 -10 -10 -11 -11 -11 -12 -12 -12 -13 -13
-6 -5 -5 -6 -6 -7 -7 -7 -7 -7 -7 -8 -8 -8 -8 -8 -7 -7 -7 -7 -7 -7 -7 -7 -8 -8 -8 -8 -8 -8 -9 -9 -10 -10 -10 -10 -11 -11 -11 -12 -12 -13 -13 -13 -15
-6 -5 -5 -6 -6 -7 -7 -7 -7 -7 -7 -7 -7 -7 -7 -7 -7 -7 -7 -7 -7 -7 -7 -8 -8 -8 -8 -8 -8 -9 -9 -9 -10 -10 -10 -11 -11 -12 -12 -12 -13 -13 -13 -15 -16
-6 -5 -5 -6 -6 -7 -7 -7 -7 -7 -7 -7 -7 -7 -7 -7 -7 -7 -7 -7 -7 -7 -7 -8 -8 -8 -8 -8 -9 -9 -9 -10 -10 -10 -11 -11 -12 -12 -12 -12 -13 -13 -14 -16 -17
-6 -5 -6 -6 -6 -7 -7 -6 -7 -7 -7 -7 -7 -7 -7 -7 -7 -7 -7 -7 -7 -7 -8 -8 -8 -8 -8 -9 -9 -9 -10 -10 -11 -11 -11 -11 -12 -12 -12 -13 -13 -14 -15 -18 -19
-6 -6 -6 -6 -6 -6 -7 -7 -7 -7 -7 -7 -7 -7 -7 -7 -7 -7 -7 -7 -7 -7 -8 -8 -8 -8 -8 -9 -9 -9 -10 -10 -11 -11 -11 -11 -12 -12 -13 -13 -14 -14 -16 -18 -19
-6 -6 -6 -6 -6 -6 -6 -6 -6 -6 -7 -7 -7 -7 -7 -7 -7 -7 -7 -7 -7 -8 -8 -8 -8 -8 -9 -9 -9 -10 -10 -11 -11 -11 -11 -11 -12 -12 -13 -13 -14 -16 -17 -18 -18
-6 -6 -6 -6 -6 -6 -6 -6 -6 -6 -7 -7 -7 -7 -7 -7 -7 -7 -7 -7 -7 -8 -8 -8 -8 -8 -8 -9 -10 -10 -10 -10 -11 -11 -11 -11 -12 -13 -13 -14 -15 -16 -18 -18 -18
-6 -6 -6 -6 -6 -6 -6 -6 -6 -6 -6 -7 -7 -7 -7 -7 -7 -7 -7 -7 -8 -8 -8 -8 -8 -8 -9 -9 -10 -10 -10 -10 -10 -11 -11 -12 -12 -13 -14 -14 -15 -16 -18 -18 -18
-7 -6 -6 -6 -6 -6 -6 -6 -7 -7 -7 -7 -7 -7 -7 -7 -7 -7 -8 -8 -8 -8 -8 -8 -8 -9 -9 -9 -10 -10 -10 -10 -11 -11 -11 -12 -12 -13 -14 -14 -15 -18 -18 -18 -18
-7 -7 -7 -6 -6 -6 -6 -6 -7 -7 -7 -7 -7 -7 -7 -7 -8 -8 -8 -8 -8 -8 -8 -8 -8 -9 -9 -9 -10 -10 -11 -10 -11 -11 -12 -12 -12 -13 -14 -14 -15 -18 -19 -18 -18
-8 -7 -7 -7 -7 -7 -7 -7 -7 -7 -7 -7 -7 -7 -7 -8 -8 -8 -8 -8 -8 -8 -8 -8 -8 -9 -9 -10 -10 -11 -11 -11 -11 -11 -12 -12 -12 -13 -14 -15 -16 -18 -19 -18 -19
-8 -7 -7 -7 -7 -7 -7 -7 -7 -7 -7 -7 -7 -7 -8 -8 -8 -8 -8 -8 -8 -8 -8 -8 -9 -9 -9 -10 -10 -11 -11 -11 -11 -11 -11 -12 -12 -13 -14 -15 -16 -18 -19 -19 -19
-8 -8 -8 -7 -7 -7 -7 -7 -7 -7 -7 -7 -7 -8 -8 -8 -8 -8 -8 -8 -8 -8 -8 -8 -9 -9 -9 -10 -10 -11 -11 -11 -11 -12 -12 -12 -13 -13 -13 -14 -16 -18 -19 -18 -19
-9 -8 -8 -7 -7 -7 -7 -7 -7 -7 -7 -7 -8 -8 -8 -8 -8 -8 -8 -8 -8 -8 -8 -8 -9 -9 -10 -10 -10 -11 -11 -11 -12 -12 -12 -12 -13 -13 -13 -14 -15 -17 -18 -18 -19
-9 -9 -8 -8 -7 -7 -7 -7 -7 -7 -8 -8 -8 -8 -8 -8 -8 -8 -8 -8 -8 -8 -8 -8 -9 -9 -10 -10 -10 -11 -11 -11 -12 -12 -12 -12 -13 -13 -13 -14 -14 -17 -17 -18 -19
-10 -9 -9 -8 -8 -7 -8 -8 -8 -8 -8 -8 -8 -8 -8 -8 -8 -8 -8 -8 -8 -8 -8 -9 -9 -9 -10 -10 -10 -11 -11 -12 -12 -12 -12 -12 -13 -13 -13 -14 -14 -17 -17 -18 -19
-10 -9 -9 -8 -8 -8 -8 -8 -8 -8 -8 -8 -8 -8 -8 -8 -8 -8 -8 -8 -8 -8 -8 -9 -9 -9 -10 -10 -11 -11 -11 -12 -12 -12 -12 -12 -13 -13 -13 -13 -14 -16 -17 -18 -19
-10 -10 -9 -9 -9 -9 -8 -8 -8 -8 -8 -8 -8 -8 -8 -8 -8 -8 -8 -8 -8 -8 -8 -9 -9 -10 -10 -10 -11 -11 -12 -12 -12 -12 -12 -12 -12 -13 -13 -13 -14 -15 -17 -18 -18
-11 -10 -10 -9 -9 -9 -9 -8 -8 -8 -8 -8 -8 -8 -8 -8 -8 -8 -8 -8 -8 -8 -8 -8 -9 -9 -10 -10 -11 -11 -12 -12 -12 -12 -12 -12 -12 -13 -13 -13 -14 -15 -18 -18 -18
-11 -11 -10 -10 -9 -9 -9 -9 -9 -8 -8 -8 -8 -8 -8 -8 -8 -8 -8 -8 -8 -8 -8 -8 -8 -9 -10 -10 -11 -11 -12 -12 -12 -12 -13 -13 -12 -13 -13 -13 -14 -14 -17 -18 -18
Height
5892 5890 5889 5887 5886 5885 5886 5886 5886 5886 5886 5887 5888 5888 5889 5889 5889 5889 5889 5889 5889 5888 5887 5886 5885 5884 5883 5882 5880 5878 5876 5872 5869 5865 5862 5857 5853 5849 5845 5840 5835 5829 5823 5817 5811
5891 5890 5889 5886 5885 5885 5886 5886 5886 5886 5886 5887 5888 5888 5889 5889 5890 5889 5890 5889 5888 5888 5887 5885 5885 5884 5882 5880 5878 5876 5872 5869 5865 5861 5857 5853 5848 5843 5839 5833 5828 5823 5817 5810 5804
5890 5889 5888 5886 5885 5885 5885 5886 5886 5886 5887 5888 5888 5888 5889 5890 5890 5890 5889 5889 5888 5887 5886 5885 5884 5882 5880 5878 5876 5872 5869 5865 5861 5856 5852 5848 5842 5838 5833 5828 5822 5816 5810 5803 5795
5890 5889 5888 5886 5885 5885 5885 5885 5886 5886 5887 5888 5888 5889 5890 5890 5892 5889 5889 5889 5888 5887 5886 5884 5883 5882 5879 5877 5873 5869 5865 5861 5856 5851 5847 5842 5837 5833 5828 5822 5817 5811 5803 5795 5787
5888 5888 5887 5886 5885 5885 5885 5885 5886 5887 5888 5888 5889 5890 5890 5891 5891 5890 5889 5888 5888 5887 5886 5885 5883 5881 5878 5875 5871 5866 5862 5857 5852 5847 5843 5838 5834 5829 5823 5817 5810 5803 5795 5787 5776
5887 5887 5886 5886 5885 5885 5885 5885 5886 5887 5888 5889 5889 5890 5891 5891 5890 5890 5889 5889 5888 5888 5887 5886 5884 5880 5877 5873 5869 5864 5859 5854 5849 5844 5839 5834 5829 5824 5818 5812 5805 5797 5787 5776 5763
5886 5886 5885 5885 5885 5885 5885 5885 5885 5887 5887 5888 5889 5890 5890 5891 5890 5890 5890 5890 5889 5889 5888 5886 5883 5880 5876 5871 5866 5861 5857 5851 5845 5840 5836 5831 5826 5820 5815 5808 5800 5790 5780 5766 5752
5884 5884 5884 5884 5885 5885 5885 5885 5885 5886 5887 5887 5888 5890 5890 5891 5891 5891 5891 5891 5890 5890 5888 5885 5881 5878 5874 5869 5864 5859 5854 5849 5843 5838 5833 5829 5823 5817 5810 5802 5793 5782 5769 5753 5734
5882 5883 5883 5883 5884 5885 5885 5884 5885 5886 5887 5887 5889 5890 5891 5892 5892 5893 5892 5892 5891 5889 5886 5883 5880 5876 5872 5867 5862 5856 5851 5846 5841 5835 5830 5824 5818 5811 5803 5795 5784 5771 5756 5740 5723
5880 5881 5881 5882 5883 5884 5885 5885 5885 5886 5887 5888 5889 5892 5892 5893 5893 5893 5893 5892 5891 5888 5886 5883 5879 5875 5870 5865 5859 5853 5848 5843 5837 5833 5826 5819 5813 5805 5797 5787 5775 5761 5744 5727 5709
5877 5879 5880 5881 5882 5884 5884 5885 5886 5887 5887 5889 5890 5891 5893 5894 5894 5893 5892 5891 5890 5887 5885 5882 5878 5873 5868 5862 5857 5852 5846 5839 5834 5828 5822 5815 5808 5799 5791 5780 5767 5751 5733 5715 5703
5874 5876 5878 5879 5881 5883 5884 5884 5885 5887 5888 5889 5891 5892 5894 5894 5894 5893 5892 5891 5889 5886 5883 5881 5876 5872 5866 5861 5856 5849 5843 5837 5831 5825 5820 5812 5804 5795 5784 5772 5755 5739 5720 5710 5703
5870 5873 5876 5878 5880 5882 5883 5884 5885 5887 5889 5891 5892 5893 5894 5894 5893 5892 5892 5889 5887 5885 5882 5878 5875 5869 5865 5859 5852 5846 5840 5834 5829 5822 5815 5808 5801 5790 5777 5762 5745 5727 5715 5708 5702
5867 5870 5873 5875 5879 5881 5882 5884 5886 5888 5890 5892 5892 5893 5894 5893 5893 5892 5890 5889 5886 5883 5880 5877 5872 5868 5863 5856 5850 5844 5837 5831 5825 5819 5811 5802 5794 5783 5771 5755 5738 5725 5714 5708 5702
5863 5866 5870 5873 5876 5879 5882 5883 5885 5888 5890 5892 5892 5892 5892 5893 5893 5891 5889 5887 5884 5881 5879 5876 5871 5866 5860 5855 5849 5844 5837 5830 5825 5817 5809 5799 5789 5776 5765 5752 5739 5721 5711 5706 5699
5858 5861 5866 5870 5873 5877 5879 5882 5885 5888 5888 5890 5891 5891 5891 5891 5891 5889 5888 5886 5883 5880 5877 5873 5869 5865 5859 5853 5847 5842 5836 5830 5823 5814 5806 5795 5783 5771 5758 5746 5732 5715 5707 5703 5697
5852 5857 5861 5866 5870 5873 5877 5881 5884 5885 5888 5889 5889 5889 5890 5890 5889 5888 5886 5884 5881 5879 5875 5872 5867 5863 5857 5851 5845 5838 5832 5826 5819 5809 5800 5790 5780 5770 5755 5739 5724 5711 5704 5700 5695
5847 5852 5856 5861 5865 5869 5874 5878 5881 5883 5885 5886 5887 5888 5888 5888 5887 5886 5884 5882 5879 5876 5873 5870 5867 5861 5855 5850 5844 5838 5831 5823 5815 5808 5800 5790 5780 5768 5751 5734 5716 5705 5701 5698 5693
5841 5846 5851 5856 5861 5865 5870 5875 5878 5880 5883 5884 5885 5885 5885 5886 5885 5884 5882 5880 5877 5874 5872 5868 5864 5859 5854 5848 5843 5836 5829 5823 5816 5808 5798 5787 5776 5763 5749 5732 5716 5704 5701 5697 5693
5833 5840 5845 5850 5855 5861 5866 5871 5874 5877 5879 5881 5882 5883 5883 5883 5883 5881 5880 5878 5875 5873 5869 5866 5861 5856 5851 5846 5840 5834 5828 5820 5812 5802 5794 5786 5772 5760 5748 5735 5717 5705 5701 5696 5692
5826 5833 5839 5844 5850 5856 5861 5866 5870 5873 5876 5878 5879 5879 5880 5880 5879 5879 5878 5876 5874 5871 5867 5863 5859 5855 5849 5844 5837 5832 5825 5818 5811 5802 5791 5781 5772 5760 5746 5733 5718 5706 5702 5697 5691
5817 5826 5832 5837 5844 5851 5857 5862 5866 5869 5872 5874 5876 5876 5877 5877 5877 5877 5876 5874 5872 5868 5865 5861 5856 5852 5847 5841 5836 5830 5823 5817 5809 5802 5792 5782 5772 5758 5746 5735 5719 5708 5702 5695 5691
5809 5818 5824 5831 5838 5846 5852 5856 5861 5865 5868 5870 5872 5873 5874 5874 5875 5874 5873 5872 5870 5866 5862 5859 5854 5850 5845 5841 5834 5828 5822 5816 5809 5801 5793 5781 5771 5759 5746 5734 5718 5707 5702 5697 5692
5802 5809 5817 5824 5832 5839 5846 5850 5855 5860 5863 5866 5868 5869 5871 5871 5872 5872 5871 5870 5867 5864 5860 5856 5851 5847 5842 5837 5832 5827 5821 5814 5807 5800 5792 5782 5771 5758 5746 5734 5719 5706 5701 5696 5690
5792 5801 5809 5817 5826 5833 5838 5846 5850 5855 5859 5862 5864 5865 5867 5868 5868 5868 5868 5867 5865 5862 5859 5855 5850 5845 5840 5835 5830 5825 5819 5813 5806 5798 5791 5782 5772 5760 5748 5736 5722 5707 5701 5696 5691
5783 5792 5801 5811 5818 5824 5830 5838 5844 5849 5853 5857 5859 5861 5863 5864 5865 5865 5865 5864 5863 5861 5857 5853 5849 5843 5838 5834 5829 5823 5818 5812 5805 5798 5791 5781 5772 5760 5748 5737 5724 5709 5702 5698 5692
5775 5784 5793 5801 5810 5816 5824 5831 5837 5842 5847 5851 5854 5856 5858 5860 5861 5861 5862 5861 5861 5858 5855 5851 5847 5842 5837 5832 5827 5823 5816 5811 5804 5797 5790 5781 5772 5760 5748 5737 5724 5711 5701 5697 5691
Wind_Speed
8 12 13 9 7 4 4 4 3 2 2 1 1 1 1 2 4 5 5 5 6 8 10 9 10 12 12 13 15 17 19 21 23 26 29 32 34 36 38 40 42 43 45 46 47
8 11 11 7 5 3 3 4 4 3 2 2 2 2 2 2 3 3 4 5 6 8 8 10 11 12 14 16 18 19 21 23 25 28 30 32 34 36 37 39 39 40 42 45 48
8 10 8 5 4 3 2 2 2 1 0 1 2 2 2 1 1 2 2 4 7 8 8 11 13 15 16 16 18 21 23 25 26 29 31 32 34 34 35 35 36 40 44 48 51
7 8 7 5 4 2 2 2 2 1 2 3 2 2 2 1 1 2 4 6 8 10 12 14 14 14 16 19 21 23 25 27 29 31 32 32 34 33 33 35 38 41 46 51 55
6 6 6 5 4 2 1 2 2 2 2 2 1 1 2 2 2 4 5 9 11 12 13 13 16 17 18 20 23 25 26 29 30 30 30 31 31 32 34 37 41 45 50 53 58
6 5 5 6 5 3 2 2 2 2 1 0 1 2 1 3 3 6 10 11 13 13 13 15 15 17 19 22 24 25 27 28 28 28 29 30 31 33 35 39 42 46 52 57 62
8 4 5 6 5 4 3 3 3 2 1 1 1 1 4 5 7 9 12 13 13 12 12 14 16 19 22 24 26 27 27 27 28 28 29 30 30 32 34 38 43 48 53 60 68
9 5 5 6 5 5 3 4 3 2 1 0 3 5 7 8 10 11 11 11 11 12 14 16 19 21 24 25 26 26 26 26 26 28 29 29 29 31 33 38 44 50 58 66 72
10 7 6 5 5 3 1 4 5 5 4 3 4 7 9 11 11 10 10 10 11 13 16 18 21 23 26 27 27 27 26 26 26 27 28 29 29 31 35 42 49 56 64 70 72
13 9 7 5 4 3 4 5 5 5 5 5 9 11 12 10 8 8 9 10 12 14 16 18 22 26 27 28 28 28 26 26 27 27 28 29 30 34 40 47 54 61 69 69 54
15 11 9 6 6 5 5 5 6 6 7 9 11 12 9 7 7 7 9 11 14 14 16 19 23 26 29 29 28 27 27 28 29 29 28 31 32 38 43 51 58 66 68 51 33
18 14 11 9 9 7 6 7 8 10 12 12 11 9 6 6 6 8 10 12 13 15 17 20 24 27 28 28 29 28 28 30 30 29 29 33 34 40 47 56 64 69 63 35 27
21 17 14 13 11 9 9 10 12 12 12 11 8 6 4 4 6 7 10 12 14 15 17 20 24 27 28 30 31 29 29 30 28 30 32 36 37 44 51 59 64 66 50 29 25
24 21 19 16 13 12 12 12 12 11 10 9 6 4 1 3 5 7 10 12 14 16 17 20 23 26 29 31 31 29 30 29 30 33 36 40 44 48 54 60 63 59 36 22 25
28 25 23 20 17 15 13 13 12 10 10 5 4 2 0 3 6 9 11 14 15 16 17 20 24 28 29 30 31 30 29 28 31 33 38 42 47 54 57 63 61 56 29 22 28
31 29 27 24 20 18 16 14 13 12 7 7 4 3 3 4 7 10 13 15 15 17 18 20 24 27 29 31 31 31 29 28 31 37 40 45 51 57 62 69 67 54 26 24 28
34 32 30 27 24 22 19 17 15 12 8 8 6 5 5 6 9 12 15 15 15 17 19 21 24 27 29 31 31 33 32 32 35 42 46 48 54 58 63 72 70 54 22 24 26
37 35 33 31 28 25 22 19 17 14 10 9 7 7 7 9 11 14 16 15 17 18 19 21 24 27 28 29 31 31 32 34 38 43 46 50 54 58 64 73 69 51 22 24 25
40 38 36 35 31 28 25 22 19 16 11 9 8 7 9 10 12 13 14 15 17 18 19 21 24 26 27 29 31 32 32 33 37 42 46 52 56 59 65 71 65 41 22 23 24
43 41 39 38 35 32 28 24 21 18 14 11 10 10 10 11 11 12 12 14 16 18 20 23 24 27 28 30 31 32 33 34 41 47 48 52 57 60 66 71 64 32 18 22 25
46 44 42 40 38 35 30 26 24 20 14 11 10 11 11 10 10 10 11 14 16 19 22 24 26 28 28 30 31 32 33 34 40 46 50 54 57 59 66 73 64 23 17 22 25
49 47 44 43 41 36 32 28 26 21 15 11 11 12 10 10 8 9 11 13 16 20 23 25 26 27 28 29 30 31 32 34 39 44 47 52 57 61 65 72 64 20 20 23 25
50 50 48 46 42 37 33 31 28 23 17 13 13 13 11 9 8 9 10 13 17 21 24 25 26 27 27 29 30 30 32 32 38 41 45 52 57 59 63 71 63 26 23 24 26
51 52 51 48 43 39 37 34 30 25 20 15 15 14 11 9 8 8 8 12 17 19 21 23 24 26 27 29 29 28 30 32 38 39 43 50 55 59 64 69 65 34 21 21 24
54 53 52 50 45 41 40 37 32 28 22 18 17 16 13 10 9 7 7 11 12 14 18 21 23 24 27 28 28 28 29 31 37 37 42 49 54 58 62 65 69 40 17 22 25
54 53 53 51 48 45 43 38 35 30 26 22 19 18 15 13 11 7 6 8 8 13 19 23 23 24 26 27 27 27 27 30 35 36 41 46 53 57 61 63 70 46 17 23 24
54 53 53 53 51 49 44 40 37 34 29 25 22 20 18 15 12 9 7 6 8 13 17 21 25 26 26 27 27 27 28 28 34 36 39 45 52 55 59 63 68 60 21 22 24
Wind_Direction
317 331 332 338 337 315 285 276 251 224 243 224 206 213 235 286 313 320 333 353 19 16 3 345 337 336 325 324 324 323 322 320 318 316 314 310 308 306 306 309 310 310 310 309 308
316 329 331 341 334 310 281 267 251 233 245 253 254 257 276 324 351 4 20 18 357 343 343 343 343 342 344 339 334 329 324 324 323 318 313 311 311 312 313 315 315 313 311 310 311
312 325 327 337 329 312 275 255 254 235 155 142 165 145 131 118 10 21 0 330 330 338 1 6 2 355 353 346 340 339 336 332 326 323 320 321 318 317 319 319 317 314 315 314 315
301 319 322 331 326 319 257 217 215 172 149 141 121 106 91 338 314 302 327 347 13 20 20 19 12 4 359 353 347 343 338 333 330 328 327 325 323 325 325 320 319 320 319 316 312
287 312 318 317 323 302 230 170 153 159 151 143 113 55 0 326 308 338 35 46 39 39 32 24 15 3 356 352 347 341 335 333 331 329 328 328 329 328 325 325 325 321 316 311 307
264 292 307 297 315 317 251 153 132 131 142 240 342 320 300 23 41 50 51 55 50 44 33 14 3 2 358 352 346 341 339 337 334 333 333 334 335 331 331 326 321 317 312 309 306
249 264 296 293 302 321 249 192 168 185 224 288 333 57 65 62 67 72 69 59 50 31 18 8 8 2 356 352 347 345 341 340 337 337 339 337 337 332 327 323 318 315 314 312 310
239 245 287 284 288 315 277 222 200 192 234 67 78 75 80 87 91 80 70 52 38 31 21 13 7 359 356 352 348 348 345 342 341 340 341 339 335 330 327 322 322 322 320 318 318
228 235 270 276 275 302 235 180 166 145 133 108 98 101 100 102 89 74 54 44 35 29 20 10 3 359 355 352 352 351 349 346 346 345 342 339 338 335 328 329 331 328 327 325 326
220 226 247 251 238 230 174 159 135 132 128 112 111 109 111 98 78 64 48 34 28 21 13 5 0 358 355 356 356 353 351 350 350 348 345 345 345 335 338 338 336 333 334 334 337
216 217 230 220 212 197 171 166 157 141 127 117 119 118 110 85 68 52 35 25 18 12 6 1 359 359 357 358 357 354 354 353 351 349 350 350 346 341 342 341 340 340 338 345 358
211 209 215 201 185 180 160 151 141 133 128 126 126 123 108 84 58 40 26 15 10 2 1 357 357 358 359 358 359 358 357 354 353 351 351 353 348 345 345 347 345 343 343 356 359
207 205 205 190 186 176 160 148 141 138 137 137 134 130 104 60 33 19 10 5 2 357 355 354 355 356 357 360 3 359 358 356 357 355 352 353 353 349 350 350 348 346 345 353 353
205 203 202 192 189 176 165 157 151 152 152 153 153 146 107 32 15 357 356 355 353 351 351 350 351 353 356 1 1 1 359 359 359 358 355 353 355 353 353 353 350 344 345 344 348
207 201 200 194 191 184 177 171 164 163 160 171 174 185 2 356 348 345 344 347 345 344 347 347 348 352 355 358 359 3 2 3 0 1 359 355 355 356 355 356 349 343 342 344 353
207 201 200 197 193 192 187 185 181 179 189 188 196 227 269 315 327 337 337 339 336 340 343 344 348 351 353 355 358 1 4 2 4 3 2 0 358 358 356 353 352 348 343 352 355
207 204 199 200 195 194 194 195 192 192 205 205 221 246 279 306 323 330 331 331 335 341 342 344 346 349 352 354 357 0 0 0 5 5 4 1 360 358 357 354 353 354 356 355 357
208 206 201 201 198 196 198 201 199 202 209 215 233 259 287 305 316 322 329 333 337 338 340 342 344 348 352 354 356 358 360 2 2 4 3 3 359 359 0 357 354 357 12 359 357
209 206 205 202 201 201 203 203 205 209 215 222 245 273 293 303 311 320 329 332 335 337 339 340 342 346 350 353 354 358 0 359 360 2 4 4 0 3 2 1 355 0 10 358 359
209 208 207 204 203 205 205 205 208 212 224 236 258 275 291 302 309 321 328 330 335 336 336 337 341 346 350 352 353 356 358 358 0 1 3 4 1 2 4 3 359 4 8 1 2
209 210 208 206 206 207 205 208 209 215 228 249 269 276 287 299 308 318 325 332 335 334 334 336 340 344 347 351 352 355 357 357 0 1 1 2 1 3 6 3 359 4 7 7 3
209 211 209 208 209 208 206 207 212 217 226 250 275 277 281 291 301 314 324 332 335 336 336 338 340 344 347 349 350 355 355 356 359 2 1 1 3 5 7 5 1 3 6 6 3
210 210 211 211 208 209 207 208 213 218 231 250 273 273 275 280 294 312 325 334 340 340 340 342 341 343 346 348 348 354 355 354 358 1 2 2 2 4 8 6 6 5 7 5 2
212 211 211 211 209 208 209 210 212 219 230 246 268 267 265 269 287 304 325 340 344 341 345 345 342 344 347 346 347 352 353 354 355 360 4 3 3 5 9 7 7 3 2 3 4
213 212 212 212 210 208 211 214 217 221 231 243 262 260 256 260 271 287 319 341 345 359 358 352 346 346 347 345 345 350 353 354 355 358 4 3 3 6 9 8 9 3 357 4 2
214 213 212 213 211 209 211 213 218 223 231 240 251 250 249 253 260 270 300 324 339 358 5 2 353 350 347 345 344 349 353 354 353 356 1 2 3 6 8 9 9 6 355 4 4
215 214 214 213 213 213 214 214 219 224 229 238 248 245 244 249 254 260 273 285 317 339 352 354 355 352 347 344 345 348 353 351 352 353 359 2 3 5 8 9 8 15 2 0 5